Location: Hilton Head Island
(32.2163°N, 80.7526°W)
Time: 08:49:38
(UTC-04:00)

Vanguard 1 - Pass Details

Date: 21 February 2026
Orbit: 653 x 3818 km, 34.2° (Epoch: 17 March)

Event Time Altitude Azimuth Distance (km) Brightness Sun altitude
Rises 22:41:10 0° 284° (WNW) 7,158 15.0 -55.5°
Reaches altitude 10° 22:46:39 10° 275° (W) 6,470 14.5 -56.4°
Maximum altitude 23:03:40 29° 225° (SW) 5,431 13.6 -59.3°
Enters shadow 23:05:44 29° 217° (SW) 5,445 13.6 -59.6°
Drops below altitude 10° 23:20:53 10° 173° (S) 6,422 - -61.9°
Sets 23:26:31 0° 163° (SSE) 7,085 - -62.7°
